Location: Ferchesar
(52.6477°N, 12.4298°E)
Time: 20:10:33
(UTC+02:00)

A-11 Canister half - Pass Details

Date: 04 March 2021
Orbit: 1525 x 1683 km, 47.3° (Epoch: 11 April)

Event Time Altitude Azimuth Distance (km) Brightness Sun altitude
Exits shadow 05:35:24 10° 238° (WSW) 3,834 10.5 -12.1°
Reaches altitude 10° 05:35:31 10° 238° (WSW) 3,798 10.5 -12.1°
Maximum altitude 05:44:47 57° 163° (SSE) 1,795 9.4 -10.7°
Drops below altitude 10° 05:53:50 10° 89° (E) 3,707 12.7 -9.3°
Sets 05:56:54 0° 85° (E) 4,682 14.0 -8.9°
